Location: Aranbee
(34.0885°N, 118.2342°W)
Time: 23:57:46
(UTC+00:00)

A-11 Canister half - Pass Details

Date: 06 August 2021
Orbit: 1515 x 1685 km, 47.2° (Epoch: 22 September)

Event Time Altitude Azimuth Distance (km) Brightness Sun altitude
Rises 05:24:26 0° 305° (NW) 4,892 12.8 -27.4°
Reaches altitude 10° 05:27:34 10° 307° (NW) 3,919 12.1 -27.8°
Maximum altitude 05:37:44 80° 35° (NE) 1,706 9.1 -29.2°
Enters shadow 05:40:56 51° 112° (ESE) 2,044 9.2 -29.6°
